Aeroporto :
LOGIN :

Iscrizione | Disclaimer

   EN    FR    IT 

 










Sommario :    VFR   VFR Marginale   IFR   IFR Intensivo   IFR Molto Intensivo
Visibilità : 
Base nubi : 
>= 8 km
>= 3000ft
5 / 8 km
1000 / 3000 ft
1500m / 5 km
500 / 1000 ft
800 / 1500m
200 / 500 ft
< 800m
< 200 ft
Simboli :   Temporali  Nebbia  Neve Forte  Precipitazioni Forti  Vento > 20 kt
SIGMETs :   Varie  Temporali  Ghiacco  Turbolenza  Onda orograficha  Ceneri Vulcaniche







- Altitudine del aeroporto : 13 ft
- Codice IATA : GOA


LIMJ - Genoa Cristoforo Colombo

ULTIMO METAR :
  • 150520Z 04011KT CAVOK 03/M04 Q1018

METARs OBSOLETI :
  • 150450Z 07007KT 030V090 CAVOK 03/M05 Q1018
  • 150420Z 11004KT 040V170 CAVOK 03/M05 Q1018
  • 150350Z 10007KT 060V130 CAVOK 02/M05 Q1017
  • 150320Z 06007KT 030V110 CAVOK 04/M05 Q1017
  • 150250Z 06005KT 030V090 CAVOK 03/M05 Q1017

TAF TAF LIMJ
Valido dal 15 a 06 ore il 16 a 06 ore UTC


150500Z 1506/1606 02010KT CAVOK
Nessun NOTAM noto per questo aeroporto.



MetMap, La meteo Aeronautica in un colpo d'occhio ! - Copyright ORBIFLY Dicembre 2007 - Disclaimer

ORBIFLY MET'MAP TEAM :

Programmazione e sviluppo : Alexandra Zaïnal
Concezione e sviluppo : Baudouin d'Aumeries
Co-Programmazione e sviluppo : Marc-Olivier Méhu
Supporto tecnico e logistico : Manuel Goepfert
Aiuto per la traduzione : Arnaldo La Scala

Contatto : metmap@orbifly.com




FONTI E CREDITI :

   NOAA